This is the latest recevied weather packets stored in our database for station/object N1HQ. If no packets are shown the sender has not sent any weather packets the latest 10 day(s).
| Time | Temp. | Humidity | Pressure | Rain* | Wind** | Luminosity | Snow |
|---|---|---|---|---|---|---|---|
| 1777490363 | 27.22° C | 82% | 1012.1 hPa | 0 mm | - | - | - |
| 1777490065 | 27.22° C | 81% | 1012.1 hPa | 0 mm | - | - | - |
| 1777489765 | 27.22° C | 82% | 1012.1 hPa | 0 mm | - | - | - |
| 1777489483 | 27.78° C | 81% | 1012.3 hPa | 0 mm | - | - | - |
| 1777489233 | 27.78° C | 82% | 1012.2 hPa | 0 mm | - | - | - |
| 1777488963 | 27.22° C | 83% | 1012.2 hPa | 0 mm | - | - | - |
| 1777488703 | 27.22° C | 82% | 1012.3 hPa | 0 mm | - | - | - |
| 1777488433 | 27.78° C | 80% | 1012.3 hPa | 0 mm | - | - | - |
| 1777488163 | 27.78° C | 80% | 1012.2 hPa | 0 mm | - | - | - |
| 1777487868 | 27.78° C | 81% | 1012.3 hPa | 0 mm | - | - | - |
| 1777487623 | 27.78° C | 79% | 1012.4 hPa | 0 mm | - | - | - |
| 1777487383 | 27.78° C | 80% | 1012.6 hPa | 0 mm | - | - | - |
| 1777487105 | 27.78° C | 81% | 1012.8 hPa | 0 mm | - | - | - |
| 1777486808 | 27.78° C | 81% | 1013 hPa | 0 mm | - | - | - |
| 1777486558 | 27.78° C | 81% | 1013.1 hPa | 0 mm | - | - | - |
| 1777486310 | 27.78° C | 81% | 1013.1 hPa | 0 mm | - | - | - |
| 1777486038 | 27.78° C | 79% | 1013.1 hPa | 0.25 mm | - | - | - |
| 1777485783 | 28.33° C | 81% | 1013.2 hPa | 0.25 mm | - | - | - |
| 1777485498 | 27.78° C | 79% | 1013.1 hPa | 0.25 mm | - | - | - |
| 1777485213 | 28.33° C | 76% | 1013.1 hPa | 0.25 mm | - | - | - |
| 1777484953 | 28.33° C | 78% | 1013 hPa | 0.25 mm | - | - | - |
| 1777484693 | 28.33° C | 77% | 1013 hPa | 0.25 mm | - | - | - |
| 1777484438 | 28.33° C | 78% | 1013.1 hPa | 0.25 mm | - | - | - |
| 1777484153 | 28.33° C | 77% | 1013.3 hPa | 0.25 mm | - | - | - |
| 1777483863 | 28.33° C | 77% | 1013.5 hPa | 0.25 mm | - | - | - |
* Rain latest hour (hover to see other rain measurements)
** Current wind speed in m/s (hover to see current wind gust speed)